RH
52 52 53 54 55 52 49 41 36 36 39 47 52 52 52 49 47 45 42 38 37 37 38 36 38 33 27 28 25 16 18 16 12 16 13 22 25 29 30 29 23 28 28 29 25 27 26
50 50 51 53 55 57 55 54 54 53 53 53 54 53 51 49 47 45 43 40 40 40 38 40 40 32 30 34 22 21 20 14 14 15 16 18 24 27 30 30 25 30 31 30 24 25 28
43 44 46 50 51 52 55 54 54 56 56 57 56 56 54 50 46 45 44 40 40 41 41 41 40 36 28 31 22 31 19 16 16 15 17 16 19 36 36 34 31 29 31 33 30 30 29
43 47 50 53 52 50 49 51 53 53 54 54 55 54 51 50 50 46 40 39 40 39 39 43 43 40 33 25 36 23 18 17 17 17 18 19 19 25 31 29 28 32 29 31 22 34 30
46 50 53 57 58 58 56 53 50 49 48 48 49 51 52 55 52 44 40 40 41 42 44 45 44 42 37 40 32 22 17 16 19 16 19 23 25 35 33 39 51 48 40 30 28 32 33
49 52 55 58 60 62 62 61 60 59 57 57 57 58 59 56 50 46 43 40 36 46 45 47 48 45 46 40 27 26 18 18 20 27 34 32 32 43 48 48 56 39 37 31 28 23 35
55 54 55 54 54 54 54 52 52 53 55 58 61 64 62 56 50 50 48 46 47 49 53 60 60 49 34 25 26 22 21 25 27 32 32 38 38 37 33 34 31 31 34 36 30 26 33
59 55 52 48 45 45 48 51 54 58 63 68 66 65 61 58 56 56 64 62 69 66 69 64 41 37 32 36 31 26 23 26 29 30 29 40 42 35 30 29 30 31 34 38 34 31 33
77 75 71 67 62 61 58 59 60 62 62 62 62 63 66 66 62 62 69 70 71 73 72 63 45 33 30 32 31 29 28 31 36 29 32 34 32 33 32 33 35 40 41 38 41 43 37
85 87 86 84 83 79 72 72 72 69 66 79 78 73 72 66 72 79 75 72 72 69 85 67 46 42 38 36 46 37 33 37 33 36 37 40 32 32 30 34 39 43 40 43 48 59 54
100 99 95 96 99 95 92 91 94 96 99 100 98 89 89 78 89 90 81 76 73 65 75 51 41 32 40 41 40 46 41 45 38 35 39 44 37 38 44 41 36 45 40 43 46 60 70
100 100 100 100 99 100 99 100 97 99 96 88 92 99 98 94 99 91 86 79 69 79 72 65 41 42 43 48 43 44 49 51 44 46 44 45 38 38 39 41 42 42 42 52 76 80 85
100 100 100 100 100 100 100 97 96 95 97 93 94 96 99 98 99 95 90 81 89 86 52 58 48 41 44 50 48 49 47 51 55 64 62 53 46 41 39 42 47 46 54 71 69 90 74
65 94 99 100 100 100 100 99 100 96 93 95 97 95 98 99 96 98 94 84 98 68 78 48 43 48 58 52 51 47 50 58 50 51 70 77 67 47 44 42 47 55 48 70 53 86 80
66 84 67 74 81 95 100 100 100 100 99 96 100 96 91 81 92 97 96 100 87 76 64 66 59 73 73 61 58 45 52 58 48 51 62 64 58 45 45 48 41 48 68 51 65 64 88
61 76 77 76 64 55 65 75 87 98 99 100 99 100 98 93 98 100 100 96 86 66 55 52 77 73 87 68 62 60 57 48 47 40 38 44 61 46 51 47 47 49 48 66 75 68 68
82 83 80 86 82 78 70 57 60 85 96 100 100 100 100 100 100 100 100 94 83 64 56 65 76 76 80 80 69 60 60 47 41 49 39 43 52 56 56 62 55 70 64 60 66 76 82
87 88 85 87 80 90 89 70 80 97 90 99 100 100 99 100 98 100 98 88 76 74 70 65 66 76 78 86 91 83 73 57 39 45 50 46 58 75 66 53 51 54 58 62 81 66 90
72 80 80 84 85 88 94 91 90 100 90 98 97 92 100 100 100 100 95 88 82 78 74 78 77 78 78 88 99 87 66 49 44 48 58 50 68 90 73 59 51 61 61 53 57 64 68
74 66 64 62 62 72 85 95 89 97 93 100 91 99 100 100 100 94 94 94 91 82 76 74 74 72 82 89 77 89 83 59 50 49 53 53 86 80 78 59 62 68 61 57 59 89 74
82 78 62 57 74 72 67 85 94 87 100 98 98 95 83 96 98 97 88 82 92 89 81 74 81 83 87 99 100 98 88 88 80 70 71 69 98 94 77 74 74 74 72 64 66 77 86
71 80 77 58 59 90 76 83 81 88 96 100 93 97 95 86 81 94 90 80 71 69 87 92 94 88 89 94 95 90 98 99 89 72 71 74 98 91 90 76 78 82 70 68 68 66 65
74 71 80 76 61 75 89 92 85 93 87 98 97 89 80 93 97 96 87 80 80 70 66 65 80 83 93 86 76 75 81 80 80 95 100 100 99 98 89 76 78 91 71 69 63 61 61
82 74 70 80 74 58 58 83 92 91 88 93 93 97 94 93 95 85 86 82 84 76 72 74 72 80 74 72 74 79 85 91 93 94 93 99 100 98 96 87 94 47 47 53 64 61 60
86 81 75 86 94 79 55 44 73 97 94 98 84 93 96 99 97 93 87 85 78 74 78 74 70 72 80 80 98 99 97 93 92 91 97 96 98 98 97 95 77 59 51 48 63 53 46
78 76 73 71 85 87 67 46 52 86 98 97 92 92 98 92 87 82 85 80 88 93 97 86 85 85 88 98 100 95 91 81 75 84 82 94 97 98 97 96 94 54 43 39 45 65 40
75 81 76 72 77 91 80 51 69 79 99 100 96 92 100 100 88 81 92 93 80 87 97 98 100 100 100 98 98 94 86 70 82 91 97 97 97 96 95 95 89 60 38 44 65 54 39
90 85 78 77 75 92 93 59 69 81 96 100 99 99 96 100 97 97 87 88 88 88 96 99 99 100 100 98 98 96 97 84 79 69 91 87 95 95 88 94 90 38 46 58 50 39 36
90 90 90 81 80 82 96 68 54 69 93 100 100 100 100 100 98 100 95 83 86 95 96 100 94 95 98 98 98 90 94 93 82 88 64 77 71 81 76 76 39 36 40 38 34 34 35
Wind_Speed
4 4 4 5 5 6 7 7 8 8 8 9 10 11 12 14 15 17 18 19 19 19 19 15 17 14 5 1 2 5 10 9 7 4 2 2 4 3 1 3 2 0 3 4 4 6 7
5 3 2 2 2 3 4 5 6 6 7 8 10 11 13 14 16 17 18 19 19 19 17 17 16 9 4 1 3 9 12 8 4 4 3 1 2 2 1 2 1 2 6 12 11 10 7
5 4 3 2 2 1 1 2 3 5 6 7 9 11 13 14 16 16 16 18 19 20 11 20 11 6 5 2 4 14 12 6 3 4 3 3 1 0 3 4 4 4 5 6 3 6 5
7 6 5 4 3 2 2 2 3 4 5 7 8 10 12 14 16 16 17 18 19 15 10 16 7 4 5 4 9 11 8 4 2 3 3 3 2 1 1 5 4 4 3 4 3 6 2
10 9 8 6 5 3 2 3 4 4 6 7 9 10 13 15 18 19 20 20 20 6 10 10 5 6 3 6 12 10 10 6 3 3 3 3 2 3 2 3 5 5 2 3 8 5 2
13 12 11 9 8 7 6 6 6 6 6 7 10 12 14 16 19 20 21 20 16 4 15 5 5 3 5 9 10 9 8 7 5 4 2 4 4 3 4 5 2 4 4 4 5 3 4
16 15 14 13 12 11 10 10 9 9 9 10 12 12 14 16 18 20 23 20 14 1 12 4 7 5 6 5 6 7 7 4 5 3 3 4 5 2 3 3 3 3 4 6 3 7 4
18 18 17 16 15 14 13 12 12 11 11 12 13 13 13 14 15 14 18 14 11 8 6 3 3 2 4 6 2 7 8 5 4 2 2 5 1 1 1 2 3 3 5 5 6 3 2
22 21 19 18 18 17 15 15 14 13 13 14 14 13 13 13 13 13 13 15 15 16 3 3 3 1 1 3 2 4 8 3 2 1 1 3 3 2 1 2 4 3 5 3 5 6 5
26 25 23 22 21 20 19 18 18 16 15 14 15 14 12 11 7 11 7 11 14 13 4 4 1 2 2 3 3 4 4 4 1 1 2 5 3 2 2 4 5 4 2 2 5 5 2
31 30 27 24 23 23 23 22 20 18 16 16 14 13 13 9 8 6 6 11 12 5 4 3 1 1 3 1 5 1 3 2 1 1 4 4 1 2 3 3 1 6 4 4 1 0 4
21 22 23 26 26 27 25 23 21 19 18 16 15 13 12 10 6 4 7 10 7 5 5 1 0 0 3 1 2 3 2 2 2 1 2 6 2 2 3 1 2 3 4 5 4 2 2
13 16 16 18 19 20 20 19 16 16 15 13 11 12 11 8 7 6 9 5 4 4 1 3 2 1 1 3 2 2 2 3 1 5 4 4 2 1 3 0 2 4 5 4 5 3 4
20 23 20 15 16 17 18 18 17 16 15 12 10 9 9 11 10 7 3 3 4 4 6 0 2 1 4 1 3 3 1 4 1 2 1 2 6 4 2 2 2 3 5 4 5 3 5
19 16 19 22 23 22 20 19 19 19 19 17 13 12 13 14 11 11 8 3 6 5 3 4 0 2 2 2 3 2 4 4 3 7 5 3 5 1 2 1 3 2 2 3 1 0 2
16 17 16 17 18 20 22 22 23 22 21 18 17 14 16 15 13 15 3 7 5 5 4 3 9 7 6 4 2 4 5 5 4 4 3 2 4 2 1 1 1 3 3 2 2 1 4
14 15 16 16 17 16 16 17 17 16 16 14 13 6 7 19 19 11 4 5 5 10 10 7 6 5 7 4 9 5 5 3 6 4 4 4 4 4 0 5 7 2 2 2 3 5 5
16 14 12 14 16 15 16 17 15 14 13 13 8 3 8 19 7 4 4 5 3 5 8 6 2 6 8 7 2 5 5 7 7 9 6 6 4 5 10 4 3 3 8 6 4 4 3
24 20 17 15 15 15 16 13 15 16 17 16 5 6 10 17 4 3 2 3 3 2 5 4 5 6 4 4 4 10 5 2 8 8 7 3 2 3 7 4 1 4 4 5 2 3 7
22 21 23 21 23 20 19 16 13 20 18 18 5 2 5 14 4 1 3 5 5 7 5 6 2 4 2 5 7 4 3 2 4 3 11 7 3 6 8 2 2 4 3 4 4 3 4
22 22 21 21 21 21 25 23 18 20 21 25 13 6 9 5 8 7 3 1 4 5 9 7 3 8 8 5 2 5 4 2 1 4 7 6 6 6 13 10 9 15 11 10 14 15 10
24 26 24 22 23 21 21 22 22 18 24 25 9 7 10 6 8 11 13 7 20 11 8 5 6 7 7 7 7 4 3 4 6 4 10 5 4 5 9 10 12 18 15 15 18 22 18
25 26 27 25 25 25 22 23 23 22 27 26 20 15 11 11 8 8 7 15 6 9 11 22 10 7 8 12 19 20 17 13 9 6 4 4 4 5 11 4 4 8 13 15 8 7 10
25 25 28 28 26 24 28 28 25 27 27 36 26 18 13 7 9 13 9 17 14 15 11 2 11 4 4 7 7 9 11 12 16 16 17 5 4 5 3 2 6 4 2 4 7 8 7
29 29 27 29 29 28 26 28 31 28 29 32 37 32 14 4 11 9 14 8 18 20 15 16 18 13 8 5 1 4 2 3 7 14 14 15 5 3 3 5 7 8 4 4 5 5 2
28 29 28 29 29 28 27 27 31 32 32 34 38 39 26 9 16 18 13 16 7 6 0 8 11 14 14 4 2 4 5 5 4 2 4 10 10 6 2 4 6 3 3 1 0 5 2
26 28 29 29 29 30 28 27 27 31 32 34 38 37 31 6 19 16 7 9 12 10 3 6 7 10 17 4 5 6 7 6 6 6 5 3 2 12 12 7 7 4 5 4 4 5 3
27 28 26 27 28 30 27 27 25 27 28 35 37 37 33 7 12 14 24 18 9 18 6 9 5 5 4 5 4 3 4 5 4 5 8 8 8 4 5 6 9 11 4 7 4 6 9
27 27 28 27 28 30 27 27 24 26 34 26 30 30 26 18 9 15 27 24 23 21 13 18 5 8 11 4 3 2 3 2 3 4 2 3 7 5 9 6 1 12 2 7 10 12 10
Wind_Direction
149 133 116 98 84 76 73 68 65 63 57 48 39 30 23 17 11 7 1 359 354 349 345 344 345 345 354 37 40 1 354 347 355 358 17 92 76 25 43 336 327 102 312 311 269 289 270
184 172 160 130 104 78 61 54 54 50 42 34 25 18 11 7 3 2 356 354 350 347 345 346 341 352 7 103 30 2 349 343 356 17 25 93 131 124 255 257 219 279 275 282 282 264 237
209 204 205 214 207 189 54 35 23 16 15 14 10 5 2 358 357 358 357 351 346 339 351 341 344 2 75 67 25 353 346 349 18 24 27 41 30 207 328 326 328 289 317 322 254 231 217
216 217 217 221 229 239 268 305 321 335 346 349 352 349 349 351 352 353 353 351 347 335 335 345 5 20 98 65 355 347 356 16 26 39 46 47 43 316 321 311 345 333 41 353 273 148 213
224 223 223 224 227 241 259 281 295 309 322 331 335 343 346 349 350 349 350 352 340 318 332 349 351 5 63 3 348 4 10 23 59 61 57 39 26 6 343 52 8 5 274 281 319 200 121
232 231 230 231 233 241 249 258 271 289 308 324 331 337 341 344 348 347 349 350 341 303 338 351 8 78 30 341 350 15 20 32 33 24 26 31 20 41 31 56 268 303 321 294 254 291 232
241 241 240 240 245 251 254 264 276 289 302 313 319 328 336 339 345 347 353 2 11 344 353 6 339 307 326 8 73 43 36 12 10 23 15 14 51 251 238 207 247 266 253 257 272 270 253
246 248 250 250 250 252 260 266 273 282 292 299 306 315 323 332 340 351 360 39 29 335 311 5 1 330 355 10 61 38 25 23 20 337 7 12 276 255 259 251 269 269 304 287 289 354 275
245 247 249 253 254 254 253 259 267 273 278 282 290 304 317 326 335 352 16 19 3 351 345 323 322 352 354 16 356 4 17 1 68 316 30 199 214 200 290 323 313 255 224 259 248 324 279
244 247 248 251 254 257 258 258 260 261 268 278 287 296 309 320 335 344 16 11 354 351 62 285 284 331 348 340 302 328 4 4 264 277 315 250 292 222 248 234 164 288 219 250 295 31 247
241 243 246 249 250 253 255 257 256 256 259 271 281 286 306 308 312 336 353 357 350 15 9 269 346 322 318 353 329 303 338 341 248 240 72 269 221 258 293 273 113 248 339 305 322 38 35
219 230 240 244 248 248 251 254 247 247 251 260 269 276 294 294 314 322 354 348 344 43 260 321 316 339 1 295 291 292 305 299 274 267 217 253 298 194 204 35 63 322 330 12 42 57 12
249 224 222 225 229 233 237 238 241 245 251 256 260 260 249 264 278 308 340 341 35 144 307 207 198 193 35 247 239 173 311 298 216 354 347 309 234 210 174 171 37 76 59 324 345 1 229
282 268 260 252 239 243 243 243 249 248 253 255 261 258 243 245 258 284 246 53 182 226 244 102 159 240 210 197 218 192 300 299 193 138 141 149 324 188 178 184 164 169 147 154 241 264 279
278 285 278 267 262 258 259 260 258 257 257 255 252 249 243 255 249 245 172 203 202 201 215 170 62 248 244 223 207 209 218 222 244 174 179 191 274 244 140 93 132 142 178 169 111 316 22
268 272 274 270 265 258 256 257 259 258 258 253 252 250 247 247 233 210 240 228 208 206 149 156 192 186 199 196 213 204 203 191 213 179 185 204 296 263 201 151 187 175 159 65 8 255 266
265 277 271 273 275 266 261 251 248 254 259 251 243 238 214 211 216 187 202 231 220 220 203 194 209 235 223 204 206 212 226 251 177 154 163 150 174 282 165 207 188 107 234 190 140 156 189
252 259 267 280 273 274 273 258 240 231 234 231 221 216 192 193 179 205 196 198 216 222 222 231 214 251 230 179 237 234 240 218 176 155 170 192 179 234 225 250 217 200 200 172 153 218 208
250 255 254 254 267 262 265 273 241 216 220 213 224 222 189 193 205 191 207 235 226 204 211 188 230 208 202 174 248 232 226 231 179 168 158 148 234 328 320 8 353 207 203 189 147 100 218
251 250 256 254 252 254 258 259 263 227 214 211 206 184 177 210 245 151 168 217 213 202 257 204 234 144 148 227 225 254 237 268 228 200 158 125 207 205 235 183 131 232 193 207 179 208 254
256 256 258 260 256 246 242 245 245 228 215 213 202 226 194 189 219 220 205 187 179 208 215 200 199 220 193 233 226 232 250 296 310 245 210 166 227 230 251 255 260 262 239 225 233 244 245
255 254 258 263 257 250 240 239 238 233 217 226 210 174 178 197 178 202 213 213 241 232 158 221 215 209 215 225 211 234 201 191 218 188 185 182 239 196 271 241 241 258 256 241 241 248 250
258 253 251 255 258 251 248 245 234 227 226 226 230 220 215 188 177 172 216 225 235 205 249 243 213 222 222 236 242 246 241 257 219 172 213 217 193 169 267 203 252 279 249 224 231 231 235
261 261 251 252 252 255 252 249 246 229 224 234 223 225 213 222 196 209 191 200 214 216 222 251 236 207 241 249 273 275 265 259 239 223 204 200 212 184 231 98 244 276 178 194 212 239 233
255 256 255 248 252 253 251 255 248 243 225 234 242 227 232 213 198 219 209 189 216 227 225 231 241 251 224 192 255 256 261 286 234 234 212 208 209 238 223 201 307 288 221 200 188 267 227
258 259 260 256 248 251 251 256 245 245 236 232 236 238 230 233 222 224 210 205 193 187 102 210 223 217 191 144 198 226 235 215 242 274 339 221 221 230 188 230 235 205 149 144 232 264 19
261 261 259 258 251 248 251 255 255 241 245 233 235 234 225 269 250 194 194 205 205 185 191 147 181 187 191 179 218 224 235 196 205 196 172 159 198 228 241 255 271 203 161 141 148 267 113
263 267 264 258 253 247 245 254 256 246 247 230 233 234 230 237 248 225 219 205 185 206 200 162 147 189 170 215 204 189 214 217 201 187 172 173 177 192 213 231 261 159 115 176 163 136 137
259 262 267 261 251 244 245 252 262 249 245 228 228 232 230 228 245 243 234 234 227 225 210 184 206 173 184 201 194 200 214 185 179 239 119 228 191 186 188 210 142 180 194 178 167 161 167